Location: ?ejeti?ky
(50.4060°N, 14.9016°E)
Time: 12:49:21
(UTC+00:00)

STARLINK-1285 - Pass Details

Date: 07 June 2020
Orbit: 549 x 550 km, 53.0° (Epoch: 11 July)

Event Time Altitude Azimuth Distance (km) Brightness Sun altitude
Rises 01:40:55 0° 272° (W) 2,713 6.8 -8.6°
Reaches altitude 10° 01:43:11 10° 276° (W) 1,819 6.0 -8.4°
Maximum altitude 01:47:16 59° 357° (N) 634 4.2 -8.0°
Drops below altitude 10° 01:51:23 10° 78° (ENE) 1,825 7.1 -7.5°
Sets 01:53:37 0° 82° (E) 2,710 8.0 -7.3°
